| time (UTC) | temp C | wind direction | speed KPH | gust KPH | rain 1hr cm | rain 24hr cm | rain mn cm | humidity % | barometer mb |
| 20260509094529 | 10 | 272 | 1.6 | 6.4 | 0.00 | 0.00 | 0.00 | 69 | 1023.8 |
| 20260509093032 | 11 | 344 | 1.6 | 8.0 | 0.00 | 0.00 | 0.00 | 69 | 1023.6 |
| 20260509090030 | 10 | 313 | 3.2 | 8.0 | 0.00 | 0.00 | 0.00 | 68 | 1024.0 |
| 20260509084530 | 11 | 278 | 1.6 | 6.4 | 0.00 | 0.00 | 0.00 | 67 | 1024.3 |
| 20260509083144 | 11 | 299 | 1.6 | 4.8 | 0.00 | 0.00 | 0.00 | 67 | 1024.4 |
| 20260509081531 | 11 | 166 | 0.0 | 4.8 | 0.00 | 0.00 | 0.00 | 67 | 1024.4 |
| 20260509080107 | 12 | 347 | 0.0 | 4.8 | 0.00 | 0.00 | 0.00 | 64 | 1024.3 |
| 20260509074531 | 12 | 349 | 4.8 | 14.5 | 0.00 | 0.00 | 0.00 | 63 | 1024.1 |
| 20260509073031 | 13 | 355 | 4.8 | 12.9 | 0.00 | 0.00 | 0.00 | 62 | 1024.0 |
| 20260509071532 | 13 | 1 | 3.2 | 12.9 | 0.00 | 0.00 | 0.00 | 61 | 1024.1 |
| 20260509070033 | 13 | 9 | 3.2 | 12.9 | 0.00 | 0.00 | 0.00 | 61 | 1024.1 |
| 20260509064530 | 13 | 22 | 3.2 | 12.9 | 0.00 | 0.00 | 0.00 | 61 | 1024.1 |
| 20260509063029 | 13 | 12 | 1.6 | 11.3 | 0.00 | 0.00 | 0.00 | 62 | 1024.2 |
| 20260509061539 | 13 | 342 | 1.6 | 8.0 | 0.00 | 0.00 | 0.00 | 61 | 1024.1 |
| 20260509060032 | 13 | 338 | 1.6 | 8.0 | 0.00 | 0.00 | 0.00 | 60 | 1024.2 |
| 20260509054606 | 13 | 355 | 1.6 | 16.1 | 0.00 | 0.00 | 0.00 | 60 | 1024.0 |
| 20260509053030 | 13 | 5 | 3.2 | 16.1 | 0.00 | 0.00 | 0.00 | 60 | 1023.8 |
| 20260509051530 | 13 | 359 | 3.2 | 11.3 | 0.00 | 0.00 | 0.00 | 59 | 1023.8 |
| 20260509050031 | 13 | 348 | 4.8 | 16.1 | 0.00 | 0.00 | 0.00 | 58 | 1023.6 |
| 20260509044528 | 13 | 346 | 6.4 | 14.5 | 0.00 | 0.00 | 0.00 | 58 | 1023.5 |
| 20260509043032 | 13 | 347 | 4.8 | 11.3 | 0.00 | 0.00 | 0.00 | 57 | 1023.4 |
| 20260509041537 | 14 | 3 | 4.8 | 19.3 | 0.00 | 0.00 | 0.00 | 57 | 1023.4 |
| 20260509040026 | 14 | 5 | 4.8 | 14.5 | 0.00 | 0.00 | 0.00 | 57 | 1023.3 |
| 20260509034605 | 13 | 21 | 1.6 | 9.7 | 0.00 | 0.00 | 0.00 | 57 | 1023.3 |
| 20260509033032 | 14 | 35 | 0.0 | 8.0 | 0.00 | 0.00 | 0.00 | 54 | 1023.1 |
| 20260509031530 | 15 | 27 | 0.0 | 3.2 | 0.00 | 0.00 | 0.00 | 51 | 1022.9 |
| 20260509024538 | 17 | 15 | 3.2 | 17.7 | 0.00 | 0.00 | 0.00 | 46 | 1022.2 |
| 20260509023031 | 17 | 24 | 3.2 | 12.9 | 0.00 | 0.00 | 0.00 | 44 | 1022.0 |
| 20260509021528 | 18 | 42 | 3.2 | 11.3 | 0.00 | 0.00 | 0.00 | 42 | 1021.9 |
| 20260509020136 | 19 | 57 | 1.6 | 8.0 | 0.00 | 0.00 | 0.00 | 41 | 1022.0 |
| 20260509014531 | 19 | 58 | 1.6 | 8.0 | 0.00 | 0.00 | 0.00 | 39 | 1021.8 |
| 20260509013030 | 19 | 35 | 3.2 | 14.5 | 0.00 | 0.00 | 0.00 | 39 | 1021.4 |
| 20260509010030 | 19 | 38 | 6.4 | 25.7 | 0.00 | 0.00 | 0.00 | 38 | 1020.8 |
| 20260509004532 | 19 | 44 | 6.4 | 17.7 | 0.00 | 0.00 | 0.00 | 37 | 1021.0 |
| 20260509003030 | 20 | 44 | 4.8 | 16.1 | 0.00 | 0.00 | 0.00 | 35 | 1021.2 |
| 20260509000108 | 20 | 59 | 6.4 | 16.1 | 0.00 | 0.00 | 0.00 | 33 | 1021.2 |
| 20260508234529 | 20 | 59 | 4.8 | 14.5 | 0.00 | 0.00 | 0.00 | 33 | 1021.1 |
| 20260508233031 | 20 | 52 | 4.8 | 17.7 | 0.00 | 0.00 | 0.00 | 34 | 1021.2 |
| 20260508231531 | 20 | 50 | 4.8 | 16.1 | 0.00 | 0.00 | 0.00 | 33 | 1021.2 |
| 20260508230029 | 20 | 50 | 4.8 | 11.3 | 0.00 | 0.00 | 0.00 | 33 | 1021.2 |
| 20260508224532 | 21 | 54 | 3.2 | 11.3 | 0.00 | 0.00 | 0.00 | 33 | 1021.3 |
| 20260508214530 | 19 | 59 | 3.2 | 12.9 | 0.00 | 0.00 | 0.00 | 35 | 1021.6 |
| 20260508213033 | 18 | 48 | 4.8 | 12.9 | 0.00 | 0.00 | 0.00 | 36 | 1021.6 |
| 20260508211530 | 19 | 45 | 4.8 | 12.9 | 0.00 | 0.00 | 0.00 | 36 | 1021.4 |
| 20260508210107 | 18 | 38 | 4.8 | 14.5 | 0.00 | 0.00 | 0.00 | 37 | 1021.2 |
| 20260508204607 | 19 | 51 | 3.2 | 11.3 | 0.00 | 0.00 | 0.00 | 38 | 1021.3 |
| 20260508203028 | 18 | 57 | 4.8 | 12.9 | 0.00 | 0.00 | 0.00 | 39 | 1021.2 |
| 20260508201532 | 18 | 59 | 4.8 | 11.3 | 0.00 | 0.00 | 0.00 | 40 | 1021.2 |
| 20260508194529 | 17 | 54 | 3.2 | 11.3 | 0.00 | 0.00 | 0.00 | 41 | 1021.3 |
| 20260508193032 | 16 | 40 | 3.2 | 11.3 | 0.00 | 0.00 | 0.00 | 44 | 1021.4 |
| 20260508191529 | 15 | 51 | 3.2 | 12.9 | 0.00 | 0.00 | 0.00 | 45 | 1021.4 |
| 20260508190030 | 15 | 34 | 4.8 | 12.9 | 0.00 | 0.00 | 0.00 | 46 | 1021.5 |
| 20260508184530 | 13 | 42 | 3.2 | 11.3 | 0.00 | 0.00 | 0.00 | 48 | 1021.5 |
| 20260508180110 | 14 | 48 | 4.8 | 12.9 | 0.00 | 0.00 | 0.00 | 48 | 1021.0 |
| 20260508174541 | 15 | 42 | 3.2 | 11.3 | 0.00 | 0.00 | 0.00 | 49 | 1020.7 |
| 20260508173030 | 15 | 42 | 3.2 | 12.9 | 0.00 | 0.00 | 0.00 | 51 | 1020.6 |
| 20260508170030 | 16 | 40 | 3.2 | 9.7 | 0.00 | 0.00 | 0.00 | 52 | 1020.6 |
| 20260508163030 | 15 | 49 | 3.2 | 11.3 | 0.00 | 0.00 | 0.00 | 56 | 1020.7 |
| 20260508161529 | 14 | 44 | 3.2 | 9.7 | 0.00 | 0.00 | 0.00 | 58 | 1020.8 |
| 20260508154532 | 13 | 32 | 1.6 | 6.4 | 0.00 | 0.00 | 0.00 | 60 | 1020.8 |
| 20260508153031 | 12 | 16 | 1.6 | 6.4 | 0.00 | 0.00 | 0.00 | 63 | 1020.7 |
| 20260508151605 | 11 | 9 | 1.6 | 6.4 | 0.00 | 0.00 | 0.00 | 65 | 1020.6 |
| 20260508150105 | 11 | 4 | 0.0 | 6.4 | 0.00 | 0.00 | 0.00 | 65 | 1020.4 |
| 20260508143027 | 8 | 312 | 0.0 | 4.8 | 0.00 | 0.00 | 0.00 | 67 | 1020.0 |
| 20260508141530 | 8 | 250 | 0.0 | 6.4 | 0.00 | 0.00 | 0.00 | 64 | 1020.0 |
| 20260508134531 | 6 | 240 | 3.2 | 9.7 | 0.00 | 0.00 | 0.00 | 64 | 1019.6 |
| 20260508130031 | 6 | 239 | 3.2 | 8.0 | 0.00 | 0.00 | 0.00 | 64 | 1019.2 |
| 20260508121530 | 6 | 236 | 1.6 | 6.4 | 0.00 | 0.00 | 0.00 | 63 | 1019.1 |
| 20260508114531 | 7 | 277 | 3.2 | 9.7 | 0.00 | 0.00 | 0.00 | 60 | 1019.1 |
| 20260508113031 | 6 | 277 | 4.8 | 8.0 | 0.00 | 0.00 | 0.00 | 63 | 1018.8 |
| 20260508111532 | 6 | 244 | 3.2 | 11.3 | 0.00 | 0.00 | 0.00 | 63 | 1018.8 |
| 20260508110030 | 6 | 241 | 4.8 | 9.7 | 0.00 | 0.00 | 0.00 | 63 | 1018.8 |
| 20260508104529 | 6 | 242 | 3.2 | 8.0 | 0.00 | 0.00 | 0.00 | 61 | 1018.8 |
| 20260508103030 | 6 | 231 | 4.8 | 9.7 | 0.00 | 0.00 | 0.00 | 59 | 1018.8 |
| 20260508101541 | 7 | 233 | 4.8 | 11.3 | 0.00 | 0.00 | 0.00 | 57 | 1018.8 |
| 20260508100029 | 7 | 238 | 3.2 | 8.0 | 0.00 | 0.00 | 0.00 | 57 | 1018.8 |